Simultaneous Nadir Overpasses (SNOs) Predictions

Prediction of SNOs between AQUA and GOES-15 Satellite Orbit:

Table of predicted SNOs for the next 14.0 days since TLE Epoch: 10/9/2018
Index Date Time (AQUA) AQUA Lat,Lon GOES-15 Lat,Lon Distance(km) Time Diff (sec)
1 10/09/2018 22:47:16 -0.72,-137.83 -0.26,-135.59 254.70 80
2 10/11/2018 22:35:04 -0.11,-134.87 -0.27,-135.57 80.15 80
3 10/13/2018 22:22:52 0.50,-131.91 -0.27,-135.56 414.50 80
4 10/14/2018 10:44:07 0.59,-137.07 0.25,-135.61 166.81 80
5 10/16/2018 10:31:55 -0.03,-134.11 0.25,-135.58 166.64 80
6 10/16/2018 22:53:20 -1.04,-139.31 -0.23,-135.51 431.93 80
7 10/18/2018 10:19:43 -0.66,-131.15 0.25,-135.55 499.55 80
8 10/18/2018 22:41:08 -0.41,-136.35 -0.23,-135.48 98.90 80
9 10/20/2018 22:28:56 0.23,-133.39 -0.22,-135.45 233.68 80
10 10/21/2018 10:50:11 0.87,-138.55 0.20,-135.50 346.73 80




NCC Satellite Simultaneous Nadir Overpasses (SNOs) Prediction Service
